Regional Weather Roundup
Issued by NWS

Home | Current Version | Previous Version | Graphics & Text | Print | Product List | Glossary On
Versions: 1 2 3 4 5 6 7 8 9 10 11 12 13 14 15 16 17 18 19 20 21 22 23 24 25 26 27 28 29 30 31 32 33 34 35 36 37 38 39 40 41 42 43 44 45 46 47 48 49 50
000
ASUS43 KOAX 280010
RWRNE

WEATHER ROUNDUP FOR NEBRASKA
NATIONAL WEATHER SERVICE OMAHA NE
600 PM CST MON FEB 27 2017

NOTES: SATELLITE DATA IS BEING USED TO AUGMENT CLOUD COVER ABOVE
       12000 FEET.
       "FAIR" INDICATES FEW OR NO CLOUDS BELOW 12,000 FEET WITH NO
       SIGNIFICANT WEATHER AND/OR OBSTRUCTIONS TO VISIBILITY.

  * THESE STATIONS DO NOT REPORT WEATHER SUCH AS RAIN...SNOW OR FOG.

NEZ001>004-019>022-054>056-280100-
NEBRASKA PANHANDLE

CITY           SKY/WX    TMP DP  RH WIND       PRES   REMARKS
SCOTTSBLUFF    CLOUDY    38  26  62 NW15G22   29.60R WCI  29
6HR MIN TEMP:  26; 6HR MAX TEMP:  38;

ALLIANCE       CLOUDY    33  27  78 NW20      29.56R WCI  21
6HR MIN TEMP:  25; 6HR MAX TEMP:  36;

CHADRON        CLOUDY    34  27  75 W5        29.63R WCI  30
6HR MIN TEMP:  33; 6HR MAX TEMP:  39;

KIMBALL        CLOUDY    49  24  38 W12       29.53R
SIDNEY         MOCLDY    47  18  31 S9        29.52S
6HR MIN TEMP:  40; 6HR MAX TEMP:  54;

$$

NEZ057>060-069>072-079>082-280100-
SOUTHWEST NEBRASKA

CITY           SKY/WX    TMP DP  RH WIND       PRES   REMARKS
NORTH PLATTE   CLEAR     50  23  34 S7        29.62S
6HR MIN TEMP:  45; 6HR MAX TEMP:  53;

IMPERIAL       CLEAR     51  19  28 SE10      29.56F
6HR MIN TEMP:  39; 6HR MAX TEMP:  55;

LEXINGTON      CLEAR     52  25  34 S8        29.64S
MCCOOK         CLEAR     54  23  30 E7        29.61S
6HR MIN TEMP:  42; 6HR MAX TEMP:  57;

OGALLALA       CLEAR     50  23  34 E7        29.56F
$$

NEZ005>010-023>029-035>040-094-280100-
NORTH CENTRAL NEBRASKA

CITY           SKY/WX    TMP DP  RH WIND       PRES   REMARKS
VALENTINE      MOCLDY    39  29  67 NE6       29.62F WCI  35
6HR MIN TEMP:  37; 6HR MAX TEMP:  42;

AINSWORTH      CLEAR     41  33  71 SE7       29.63F
BROKEN BOW     CLEAR     48  32  53 S6        29.63F
6HR MIN TEMP:  42; 6HR MAX TEMP:  50;

O`NEILL        CLEAR     44  32  64 SE7       29.67S
ORD            CLEAR     50  32  50 SE7       29.65F
6HR MIN TEMP:  42; 6HR MAX TEMP:  51;

THEDFORD       CLEAR     45  31  58 SE7       29.62S
$$

NEZ041-046>049-061>064-073>077-083>087-280100-
SOUTH CENTRAL NEBRASKA

CITY           SKY/WX    TMP DP  RH WIND       PRES   REMARKS
GRAND ISLAND   CLEAR     52  39  61 SE9       29.68S
6HR MIN TEMP:  48; 6HR MAX TEMP:  55;

AURORA         CLEAR     50  39  65 SE9       29.68F
HASTINGS       CLEAR     53  33  46 S7        29.68S
6HR MIN TEMP:  49; 6HR MAX TEMP:  57;

HEBRON         CLOUDY    53  41  64 SE3       29.69F
HOLDREGE       CLOUDY    53  20  27 S6        29.64S
KEARNEY *      CLEAR     54  28  37 S10       29.66S
YORK           CLEAR     50  39  66 SE13      29.70S
$$

NEZ011>018-030>034-042>045-280100-
NORTHEAST NEBRASKA

CITY           SKY/WX    TMP DP  RH WIND       PRES   REMARKS
NORFOLK        CLOUDY    45  32  60 E7        29.71S
6HR MIN TEMP:  42; 6HR MAX TEMP:  48;

ALBION         PTCLDY    48  35  59 SE8       29.69F
BLAIR          PTCLDY    51  30  44 SE13      29.74F
FREMONT        CLEAR     49  33  52 SE10      29.74F
TEKAMAH        MOCLDY    45  32  60 SE13      29.75F
6HR MIN TEMP:  41; 6HR MAX TEMP:  50;

WAYNE          CLOUDY    38  33  79 E9        29.73S WCI  32
$$

NEZ050>053-065>068-078-088>093-280100-
SOUTHEAST NEBRASKA

CITY           SKY/WX    TMP DP  RH WIND       PRES   REMARKS
LINCOLN        CLEAR     52  36  54 SE10      29.74F
6HR MIN TEMP:  51; 6HR MAX TEMP:  58;

OMAHA EPPLEY   MOCLDY    52  27  38 SE14      29.76F
6HR MIN TEMP:  47; 6HR MAX TEMP:  57;

BEATRICE       CLOUDY    56  40  54 SE6       29.72S
FALLS CITY     MOCLDY    57  34  41 SE13      29.74F
6HR MIN TEMP:  54; 6HR MAX TEMP:  60; 6HR PCP: TRACE;

NEBRASKA CITY  CLOUDY    52  28  40 SE8       29.75F
PLATTSMOUTH    CLOUDY    51  27  39 SE7       29.76F
$$

NEZ044-045-051>053-067-280100-
OMAHA AREA

CITY           SKY/WX    TMP DP  RH WIND       PRES   REMARKS
OMAHA EPPLEY   MOCLDY    52  27  38 SE14      29.76F
6HR MIN TEMP:  47; 6HR MAX TEMP:  57;

BLAIR          PTCLDY    51  30  44 SE13      29.74F
FREMONT        CLEAR     49  33  52 SE10      29.74F
MILLARD        CLOUDY    53  33  47 SE9       29.76F
OFFUTT AFB     CLOUDY    50  30  46 SE5       29.76F
PLATTSMOUTH    CLOUDY    51  27  39 SE7       29.76F
WAHOO          FAIR      47  35  63 SE10      29.74F
$$



USA.gov is the U.S. government's official web portal to all federal, state and local government web resources and services.